Torna al catalogo

STARLINK-37858

AttivoComunicazioniSSO
NORAD 69555·PAYLOAD·🇺🇸 United States

Lanciato Jun 15, 2026 da Vandenberg Space Force Base

Loading…

Prossimi Passaggi (prossime 24 ore)

TLE

AggiornatoSource: CelesTrak SupGP

Epoca: Sep 14, 2026, 21:36 UTC

1 69555C 26135K   26257.90048611  .00030132  00000+0  93559-3 0  2577
2 69555  97.2835 285.6575 0001321  92.6454 184.9590 15.33416801    10

Traccia STARLINK-37858 in tempo reale con AllMySat

Download on the App Store